OISL  Lar Airport

Add Bookmark

Lar, Iran

Status IATA
Operational LRR
Latitude Longitude
27° 40' 28" N 54° 22' 59" E
27.674700 54.383301
Local (DST + 5) UTC (GMT + 4)
Jan 26, 2015 05:54 Jan 26, 2015 14:24
Sunrise-Sunset Local UTC
Begin Civil Twilight 06:15 02:45
Sunrise 06:40 03:10
Sunset 05:29 13:59
End Civil Twilight 05:54 14:24

Current Weather

METAR Observed VFR
OISL 261400Z 28008KT CAVOK 20/03 Q1021 Mon, Jan 26, 2015 @ 14:00 UTC
(24 Minutes ago)
Visual Flight Rules
Wind Visibility Clouds Conditions
280° at 8 knots (15 kph) 10 km or more
  • Clear skies
  • No significant weather
Temperatures Readings Precipitation
Current Temp 20°C (68°F)
Dewpoint 3°C (37°F)
Humidity 33%
Altimeter 30.15"Hg
Sea Level Pressure 1021mb
Field Elevation 2641.08'
None Recorded

Additional weather within a 185.2km radius of OISL

Map ICAO Location
OISR 122.4km W (254°)
OIBK 133.7km S (197°)
OIBL 134.3km S (161°)
OIBV 139.6km S (227°)
OIKQ 181.7km S (124°)

24 Hour Weather History

Loading
-

24 Hour Weather Graphs

Loading
-

CheckWX.com is intended as a tool to help pilots better visualize weather data. It is not intended as a substitute for an official weather briefing obtained from a Flight Service Station. CheckWX.com does not meet the FAA requirements for an official pre-flight weather briefing. Therefore, it's important that pilots still call and obtain an official FSS pre-flight weather briefing.